This demonstration page uses our WeatherBlox Daily Observations layout. Learn more.

38.88101, -77.10428

Hourly Observations for August 3, 2015

Temp ( °F °C ) Dew Point ( °F °C ) Humidity (%) Winds ( mph kmh ) Pressure ( in mb ) Visibility ( mi km ) Precip ( " mm )
12:52 am 00:52 Clear 76 24.4 66 18.9 72 72 SSW 7 11 29.9 1013 10 16.0934 0 0
1:52 am 01:52 Clear 74 23.3 66 18.9 76 76 SW 3 6 29.89 1012 10 16.0934 0 0
2:52 am 02:52 Partly Cloudy 74 23.3 67 19.4 79 79 SSW 6 9 29.88 1012 10 16.0934 0 0
3:52 am 03:52 Partly Cloudy 73 22.8 64 17.8 74 74 SW 5 7 29.88 1012 10 16.0934 0 0
4:52 am 04:52 Partly Cloudy 74 23.3 63 17.2 69 69 S 5 7 29.86 1011 10 16.0934 0 0
5:52 am 05:52 Mostly Clear 72 22.2 63 17.2 73 73 SSW 7 11 29.87 1012 10 16.0934 0 0
6:52 am 06:52 Mostly Sunny 73 22.8 66 18.9 79 79 S 8 13 29.88 1012 10 16.0934 0 0
7:52 am 07:52 Mostly Sunny 76 24.4 63 17.2 64 64 SSW 7 11 29.88 1012 10 16.0934 0 0
8:52 am 08:52 Partly Cloudy 80 26.7 63 17.2 56 56 SSW 8 13 29.9 1012 10 16.0934 0 0
9:52 am 09:52 Partly Cloudy 83 28.3 65 18.3 55 55 S 9 15 29.88 1012 10 16.0934 0 0
10:52 am 10:52 Mostly Sunny 85 29.4 66 18.9 53 53 S 10 17 29.88 1012 10 16.0934 0 0
11:52 am 11:52 Partly Cloudy 88 31.1 67 19.4 50 50 S 14 22 29.87 1012 10 16.0934 0 0
12:52 pm 12:52 Partly Cloudy 88 31.1 68 20 52 52 S 16 26 29.85 1011 10 16.0934 0 0
1:52 pm 13:52 Mostly Cloudy 90 32.2 66 18.9 45 45 S 14 22 29.84 1011 10 16.0934 0 0
2:52 pm 14:52 Mostly Cloudy 92 33.3 61 16.1 36 36 S 13 20 29.83 1010 10 16.0934 0 0
3:52 pm 15:52 Mostly Cloudy 92 33.3 63 17.2 38 38 SSW 12 19 29.83 1010 10 16.0934 0 0
4:52 pm 16:52 Mostly Cloudy 91 32.8 67 19.4 45 45 S 14 22 29.82 1010 10 16.0934 0 0
5:52 pm 17:52 Mostly Cloudy 92 33.3 67 19.4 44 44 S 13 20 29.82 1010 10 16.0934 0 0
6:52 pm 18:52 Partly Cloudy 90 32.2 67 19.4 47 47 S 13 20 29.81 1010 10 16.0934 0 0
7:52 pm 19:52 Mostly Cloudy 89 31.7 66 18.9 47 47 S 12 19 29.82 1010 10 16.0934 0 0
8:52 pm 20:52 Mostly Cloudy 86 30 69 20.6 57 57 S 8 13 29.83 1010 10 16.0934 0 0
9:52 pm 21:52 Partly Cloudy 85 29.4 70 21.1 61 61 S 10 17 29.84 1011 10 16.0934 0 0
10:52 pm 22:52 Partly Cloudy 84 28.9 69 20.6 61 61 S 10 17 29.83 1010 10 16.0934 0 0
11:52 pm 23:52 Mostly Cloudy 82 27.8 68 20 63 63 SSW 8 13 29.84 1011 10 16.0934 0 0

Powered by AerisWeather